Location: Unspecified
(43.4680°N, 87.1740°E)
Time: 07:25:34
(UTC+00:00)

N. Korean satellite - Visible Passes

Search period start: 18 September 2021 00:00
Search period end: 28 September 2021 00:00
Orbit: 448 x 499 km, 97.3° (Epoch: 17 September)

Date Brightness Start Highest point End Pass type
(mag) Time Alt. Az. Time Alt. Az. Time Alt. Az.
18 Sep 9.8 22:31:55 10° ENE 22:33:52 14° E 22:35:49 10° SE visible
20 Sep 8.0 23:08:27 10° NNE 23:11:48 40° E 23:15:11 10° S visible
21 Sep 9.6 22:41:22 10° NE 22:43:56 19° E 22:46:31 10° SE visible
23 Sep 7.4 23:18:17 10° NNE 23:21:47 56° E 23:25:18 10° S visible
24 Sep 9.1 22:50:57 10° NE 22:53:56 25° E 22:56:55 10° SSE visible
25 Sep 10.0 22:24:35 10° ENE 22:25:57 12° E 22:27:19 10° ESE visible
26 Sep 6.8 23:28:06 10° NNE 23:31:41 78° ESE 23:35:17 10° S visible
27 Sep 8.5 23:00:34 10° NNE 23:03:50 33° E 23:07:07 10° SSE visible
